Columbia, MO

4:13 PM CDT on September 22, 2019 (GMT -0500)
Columbia Regional

Weather History for KCOU - August, 2019

Change the Weather History Date:

Saturday, August 24, 2019

  Actual Average Record
Temperature  
Mean Temperature 71 °F 76 °F  
Max Temperature 80 °F 86 °F 105 °F (1936)
Min Temperature 62 °F 65 °F 43 °F (1891)
Degree Days  
Heating Degree Days 0 0  
Month to date heating degree days 0 0  
Since 1 June heating degree days 2 11  
Since 1 July heating degree days 0 0  
Cooling Degree Days 6 11  
Month to date cooling degree days 318 281  
Year to date cooling degree days 1183 1014  
Since 1 June cooling degree days 1019 911  
Growing Degree Days 21 (Base 50)    
Moisture  
Dew Point 59 °F    
Average Humidity 69    
Maximum Humidity 87    
Minimum Humidity 50    
Precipitation  
Precipitation 0.00 in 0.14 in 1.61 in (1931)
Month to date precipitation 2.81 3.37  
Year to date precipitation 28.79 28.76  
Snow  
Snow 0.00 in 0.00 in 0.00 in (2015)
Month to date snowfall 0.0 0.0  
Since 1 June snowfall 0.0 0.0  
Since 1 July snowfall 0.0 0.0  
Snow Depth 0.00 in    
Sea Level Pressure  
Sea Level Pressure 30.09 in    
Wind  
Wind Speed 9 mph (East)    
Max Wind Speed 17 mph    
Max Gust Speed 24 mph    
Visibility 10 miles    
Events      
T = Trace of Precipitation, MM = Missing Value Source: NWS Daily Summary

Daily Weather History Graph

Daily Weather History Graph

Search for Another Location

Airport or City:

Astronomy

Aug. 24, 2019 Rise Set
Actual Time 6:30 AM CDT 7:51 PM CDT
Civil Twilight 6:02 AM CDT 8:19 PM CDT
Nautical Twilight 5:29 AM CDT 8:52 PM CDT
Astronomical Twilight 4:54 AM CDT 9:27 PM CDT
Moon 12:25 AM CDT (8/24) 3:05 PM CDT (8/24)
Length of Visible Light 14h 16m
Length of Day
13h 20m
Last Quarter, 39% of the Moon is Illuminated
Aug 24
Last Quarter
Aug 30
New
Sep 5
First Quarter
Sep 13
Full
Sep 21
Last Quarter

Hourly Weather History & Observations

Time (CDT) Temp. Dew Point Humidity Pressure Visibility Wind Dir Wind Speed Gust Speed Precip Events Conditions
12:54 AM 68.0 °F 62.1 °F 81% 30.11 in 10.0 mi East 9.2 mph - N/A   Clear
1:54 AM 66.0 °F 61.0 °F 84% 30.11 in 10.0 mi East 8.1 mph - N/A   Clear
2:54 AM 64.9 °F 60.1 °F 84% 30.12 in 10.0 mi East 6.9 mph - N/A   Clear
3:54 AM 64.0 °F 60.1 °F 87% 30.12 in 10.0 mi ENE 10.4 mph - N/A   Clear
4:54 AM 64.0 °F 59.0 °F 84% 30.12 in 10.0 mi East 9.2 mph - N/A   Clear
6:54 AM 62.1 °F 57.0 °F 84% 30.13 in 10.0 mi East 9.2 mph - N/A   Clear
7:54 AM 64.0 °F 57.9 °F 80% 30.15 in 10.0 mi East 6.9 mph - N/A   Clear
8:54 AM 66.9 °F 59.0 °F 76% 30.14 in 10.0 mi East 10.4 mph - N/A   Clear
10:54 AM 73.9 °F 59.0 °F 59% 30.13 in 10.0 mi ESE 11.5 mph 20.7 mph N/A   Clear
11:54 AM 77.0 °F 59.0 °F 54% 30.11 in 10.0 mi East 13.8 mph 21.9 mph N/A   Partly Cloudy
12:54 PM 78.1 °F 60.1 °F 54% 30.09 in 10.0 mi East 12.7 mph 20.7 mph N/A   Clear
1:54 PM 79.0 °F 59.0 °F 50% 30.09 in 10.0 mi SE 11.5 mph - N/A   Partly Cloudy
2:54 PM 77.0 °F 57.9 °F 52% 30.08 in 10.0 mi SE 10.4 mph - N/A   Overcast
3:54 PM 75.0 °F 57.0 °F 53% 30.06 in 10.0 mi ESE 10.4 mph - N/A   Overcast
4:54 PM 75.0 °F 57.9 °F 55% 30.05 in 10.0 mi ESE 4.6 mph - N/A   Overcast
5:54 PM 73.9 °F 57.9 °F 57% 30.05 in 10.0 mi ESE 8.1 mph - N/A   Mostly Cloudy
6:54 PM 73.0 °F 57.0 °F 57% 30.05 in 10.0 mi ESE 8.1 mph - N/A   Clear
7:54 PM 72.0 °F 57.9 °F 61% 30.05 in 10.0 mi East 5.8 mph - N/A   Clear
8:54 PM 71.1 °F 59.0 °F 66% 30.07 in 10.0 mi East 6.9 mph - N/A   Overcast
9:54 PM 70.0 °F 57.9 °F 65% 30.06 in 10.0 mi East 11.5 mph - N/A   Scattered Clouds
10:54 PM 69.1 °F 57.9 °F 68% 30.06 in 10.0 mi East 10.4 mph - N/A   Mostly Cloudy
11:54 PM 69.1 °F 57.9 °F 68% 30.05 in 10.0 mi East 6.9 mph - N/A   Overcast